Location: Mount Graham
(32.7016°N, 109.8912°W)
Time: 11:46:47
(UTC-07:00)

Daily predictions for brighter satellites

Satellite Brightness Start Highest point End
(mag) Time Altitude Azimuth Time Altitude Azimuth Time Altitude Azimuth
Cosmos 1470 Rocket 3.6 19:44:32 10° S 19:48:59 76° E 19:53:28 10° N
Cosmos 2150 Rocket 4.0 19:46:30 10° S 19:51:53 77° ESE 19:57:12 10° NNE
Cosmos 2298 Rocket 4.1 19:47:18 10° SSW 19:52:35 90° E 19:57:54 10° NNE
H-2A R/B 4.1 19:54:08 10° S 19:57:53 43° W 20:01:39 10° NNW
Meteor 2-3 Rocket 4.0 19:53:33 10° SSE 19:59:02 49° E 20:04:30 10° NNE
In-Cosmos 22 Rocket 4.4 19:56:26 10° S 20:02:11 86° W 20:08:03 10° N
Cosmos 1825 4.2 20:03:11 10° ESE 20:04:15 11° E 20:05:23 10° ENE
Cosmos 2082 Rocket 2.9 19:58:56 10° NNW 20:04:28 57° WSW 20:09:59 10° S
Spot 2 Rocket 3.6 20:06:59 10° S 20:12:04 82° WSW 20:17:13 10° NNW
Cosmos 1833 Rocket 3.6 20:07:52 10° NNW 20:13:17 49° WSW 20:18:38 10° S
Helios 1B rocket 2.7 20:12:13 10° NNE 20:16:08 44° E 20:20:03 10° S
Cosmos 1315 Rocket 4.4 20:13:55 10° SSW 20:17:40 38° WNW 20:21:29 10° N
USA 186 2.1 20:17:13 10° S 20:19:42 51° W 20:22:25 10° NNW
Cosmos 1892 2.7 20:17:23 10° S 20:21:14 85° W 20:25:05 10° N
ISS -1.7 20:19:08 10° WSW 20:22:03 30° NW 20:24:58 10° NNE
OAO 3 Copernicus 4.3 20:17:55 10° WSW 20:22:53 66° SSE 20:27:54 10° ENE
Tsikada Rocket 4.4 20:17:55 10° SSW 20:24:06 67° W 20:30:16 10° N
Cosmos 1943 Rocket 2.5 20:26:19 10° S 20:31:36 44° ESE 20:36:51 10° NE
Tiangong 2 2.3 20:31:06 10° NW 20:34:06 35° NNE 20:35:46 20° ENE
Spot 1 4.5 20:34:43 19° SSE 20:38:01 59° ENE 20:42:54 10° N
Cosmos 2344 3.8 20:31:34 10° S 20:38:54 46° ESE 20:46:21 10° NE
Envisat 3.4 20:34:04 10° S 20:39:05 65° W 20:44:08 10° NNW
Cosmos 2263 4.2 20:35:42 10° SSW 20:41:26 72° ESE 20:47:10 10° NNE
Cosmos 1900 4.5 20:36:24 10° NNW 20:41:33 67° ENE 20:44:32 25° SE
CZ-4B DEB 2.8 20:41:44 39° ESE 20:42:20 48° ENE 20:45:10 10° N
Cosmos 372 Rocket 4.1 20:38:11 10° S 20:43:06 48° ESE 20:48:01 10° NNE
Cosmos 1340 4.4 20:41:08 10° NNE 20:43:36 17° ENE 20:43:36 17° ENE
Helios 1A 2.9 20:42:20 20° SSE 20:45:12 86° ENE 20:49:25 10° N
Cosmos 1634 Rocket 4.0 20:39:56 10° N 20:46:14 73° E 20:51:19 17° SSE
SPOT 5 4.3 20:47:25 22° E 20:49:10 26° ENE 20:53:30 10° NNE
CENTAUR R/B 2.4 20:43:49 10° SSW 20:49:37 87° ESE 20:56:12 10° NNE
COSMOS 2455 3.7 20:45:15 10° SW 20:51:05 53° WNW 20:56:58 10° NNE
SAR-Lupe-4 3.6 20:51:25 40° SE 20:52:27 59° ENE 20:55:58 10° N
Resurs 01 Rocket 4.0 20:49:48 10° SW 20:53:09 21° W 20:56:32 10° NW
Cosmos 2369 Rocket 2.7 20:47:52 10° SSW 20:53:26 61° WNW 20:59:03 10° NNE
Cosmos 1125 Rocket 3.4 20:48:41 10° S 20:53:55 79° ESE 20:59:10 10° NNE
OAO 2 Rocket 3.9 20:50:46 10° W 20:55:31 41° SSW 20:57:22 29° SSE
Shenzhou-11 Module 1.9 20:54:09 10° NW 20:57:14 74° NNE 20:57:31 65° E
Lacrosse 5 rocket 3.4 20:54:41 10° WSW 20:57:43 26° NW 21:00:47 10° NNE
Milstar 3 3.6 20:45:19 10° WSW 20:58:07 57° S 21:03:20 22° E
Cosmos 1606 3.1 20:55:01 10° N 20:58:36 41° E 20:58:52 40° E
YAOGAN 6 3.0 20:58:22 25° S 21:00:19 61° W 21:03:59 10° NNW
Cosmos 1346 Rocket 3.9 20:58:15 10° NNW 21:02:01 41° W 21:05:00 15° SSW
Cosmos 1939 Rocket 4.2 21:00:53 12° SSW 21:04:19 37° W 21:08:10 10° NNW
Delta 168 4.0 21:05:55 10° WSW 21:08:58 29° S 21:08:58 29° S
TRAILBLAZER 4.5 21:09:16 26° S 21:11:41 64° ESE 21:16:11 10° NE
Delta 7925 Rocket 4.1 21:09:07 10° SW 21:13:27 35° S 21:13:27 35° S
SAR-Lupe-1 4.0 21:13:29 66° S 21:13:55 81° WSW 21:17:29 10° NNW
GPS 2-04 Rocket1 2.8 21:12:27 10° WNW 21:16:05 57° N 21:16:29 53° NE
Okean 1-7 3.2 21:13:51 10° N 21:18:15 73° W 21:19:40 42° SSW
MetOp-B 4.0 21:17:02 42° SSE 21:18:51 74° ENE 21:24:12 10° N
Cosmos 2279 Rocket 3.9 21:13:41 10° N 21:19:57 79° E 21:22:39 36° SSE
ATLAS 5 CENTAUR R/B 3.1 21:14:54 10° NNW 21:20:42 42° NE 21:22:41 34° E
H-2A R/B 2.6 21:22:48 40° E 21:23:34 43° ENE 21:28:37 10° N
Meteor 1-27 Rocket 3.9 21:19:12 10° N 21:24:47 52° E 21:25:44 47° ESE
Meteor 1-10 Rocket 4.3 21:19:33 10° N 21:25:30 85° W 21:27:56 38° S
Cosmos 1408 3.8 21:26:49 27° SW 21:28:16 41° W 21:31:49 10° N
Cosmos 1656 Rocket 3.5 21:29:16 55° SSE 21:30:04 62° ESE 21:35:29 10° NNE
ARGOS 3.0 21:29:07 53° SSE 21:30:25 79° ENE 21:35:48 10° N
Cosmos 158 Rocket 3.6 21:27:10 10° NNW 21:32:03 79° ENE 21:32:34 69° SE
Meteor 2-6 Rocket 4.4 21:28:07 10° N 21:34:04 79° W 21:36:17 41° S
Cosmos 2180 Rocket 4.4 21:31:02 10° N 21:37:28 89° E 21:39:33 46° S
Cosmos 1733 Rocket 3.0 21:38:50 71° NNE 21:38:50 71° NNE 21:42:44 10° N
Cosmos 1825 3.8 21:38:01 24° WSW 21:39:26 31° W 21:42:51 10° NNW
Cosmos 1782 3.7 21:36:17 10° NNW 21:40:03 42° W 21:40:31 40° WSW
ERS-1 Rocket 3.8 21:43:33 34° SW 21:45:09 45° W 21:49:59 10° NNW
SL-08 RB Rocket 3.6 21:45:10 88° SSW 21:45:12 89° WSW 21:49:54 10° NNW
Intercosmos 25 Rocket 4.1 21:45:31 10° N 21:51:30 62° ENE 21:51:30 62° ENE
Cosmos 1862 4.4 21:55:14 39° W 21:55:15 39° W 21:59:00 10° N
Landsat 7 4.3 21:56:22 50° NE 21:56:22 50° NE 22:00:14 10° N
Nimbus 7 Rocket 4.4 21:51:45 10° N 21:57:37 77° WNW 21:59:17 49° SSW
Cosmos 1048 Rocket 4.3 21:54:37 10° NNW 21:59:47 56° WSW 22:00:12 54° WSW
Lacrosse 4 Rocket 2.2 21:58:40 10° NNW 22:02:08 53° NNW 22:02:08 53° NNW
Meteor 2-20 4.3 22:04:28 74° S 22:05:05 90° WNW 22:11:13 10° N
Meteor 2-20 Rocket 4.4 22:06:18 70° E 22:06:18 70° E 22:12:14 10° NNE
ATLAS CENTAUR R/B 4.1 22:12:21 10° NNE 22:12:21 10° NNE 22:12:24 10° NNE
USA 215 3.1 22:09:49 71° SE 22:10:38 89° NE 22:17:14 10° NW
Terra 2.7 22:12:01 41° NNE 22:12:01 41° NNE 22:15:23 10° N
Cosmos 2026 Rocket 4.4 22:12:37 49° ENE 22:12:37 49° ENE 22:17:42 10° NNE
Cosmos 2219 4.2 22:07:36 10° N 22:12:18 36° NE 22:12:18 36° NE
Cosmos 1943 Rocket 4.5 22:11:20 10° WSW 22:15:29 21° WNW 22:19:38 10° NNW
DMSP B5D2-2 4.4 22:14:18 10° N 22:19:25 60° WNW 22:19:27 60° WNW
SPOT 1/Viking Rocket 4.2 22:22:10 50° W 22:22:10 50° W 22:26:55 10° NNW
Cosmos 2251 Rocket 4.3 22:17:32 10° N 22:21:25 44° NNE 22:21:25 44° NNE
SPOT 5 4.3 22:26:39 33° WSW 22:26:59 33° W 22:31:46 10° NW
H-2A R/B 4.1 22:31:06 22° N 22:31:06 22° N 22:32:43 10° N
GEOS 3 Rocket 4.3 22:35:54 49° N 22:35:54 49° N 22:39:54 10° NNW
SME Rocket 4.3 22:41:40 74° NE 22:41:40 74° NE 22:50:00 10° N
Cosmos 2297 Rocket 4.0 22:56:45 10° N 23:00:02 23° NE 23:00:02 23° NE
H-2A R/B 4.1 23:03:26 19° W 23:03:26 19° W 23:06:53 10° NW
ATLAS 5 CENTAUR R/B 3.9 22:59:55 10° NW 23:04:14 29° W 23:04:14 29° W
CZ-2C R/B 4.3 23:43:34 10° N 23:46:00 28° N 23:46:00 28° N
Cosmos 2227 Rocket 3.7 23:45:23 10° NNW 23:48:20 32° NNW 23:48:20 32° NNW
